VIR5 EGLL-KMIA

Flight info

Callsign VIR5
Flight time N/A
Altitude 34000
Route CPT3F CPT L9 BUCGO DCT FELCA DCT OFSOX DCT BANBA DCT DINIM/M085F360 DCT 52N020W 52N030W 52N040W 51N050W DCT ALLRY/N0495F360 N476B TOPPS/N0497F380 DCT BEEKN Q97 KALDA DCT BGBRD Q101 SKARP Y313 HOAGG BNFSH3
Aircraft A35K/H-SDE2E3GHIJ3J4J5LM1ORWXY/LB1D1

Departure

Time 2026-05-04 01:10
Airport London Heathrow Airport (EGLL)

Arrival

Time N/A
Airport Miami International Airport (KMIA)
Time Latitude Longitude Altitude Speed Heading
2026-05-04 01:00 51.47341 -0.44189 92 ft 0 kts 270°
2026-05-04 01:03 51.47341 -0.44181 92 ft 4 kts 270°
2026-05-04 01:03 51.47341 -0.44139 92 ft 4 kts 270°
2026-05-04 01:03 51.47341 -0.44100 92 ft 3 kts 270°
2026-05-04 01:04 51.47336 -0.44066 93 ft 4 kts 331°
2026-05-04 01:04 51.47312 -0.44058 92 ft 4 kts
2026-05-04 01:04 51.47301 -0.44059 92 ft 0 kts 359°
2026-05-04 01:06 51.47302 -0.44059 91 ft 1 kts 359°
2026-05-04 01:06 51.47335 -0.44061 93 ft 9 kts 356°
2026-05-04 01:06 51.47424 -0.44061 96 ft 17 kts
2026-05-04 01:07 51.47559 -0.44046 94 ft 19 kts 26°
2026-05-04 01:07 51.47594 -0.43871 95 ft 20 kts 90°
2026-05-04 01:07 51.47596 -0.43613 95 ft 26 kts 84°
2026-05-04 01:07 51.47664 -0.43442 97 ft 16 kts 54°
2026-05-04 01:08 51.47718 -0.43375 97 ft 6 kts 360°
2026-05-04 01:08 51.47765 -0.43420 98 ft 9 kts 312°
2026-05-04 01:08 51.47771 -0.43492 97 ft 5 kts 263°
2026-05-04 01:08 51.47771 -0.43505 96 ft 0 kts 263°
2026-05-04 01:09 51.47770 -0.43558 96 ft 19 kts 269°
2026-05-04 01:09 51.47768 -0.44141 95 ft 87 kts 270°
2026-05-04 01:09 51.47763 -0.45411 96 ft 140 kts 270°
2026-05-04 01:10 51.47755 -0.47170 244 ft 173 kts 270°
2026-05-04 01:10 51.47727 -0.49125 827 ft 176 kts 268°
2026-05-04 01:10 51.47675 -0.51054 1539 ft 168 kts 267°
2026-05-04 01:10 51.47628 -0.52908 2008 ft 174 kts 267°
2026-05-04 01:11 51.47476 -0.54945 2221 ft 195 kts 258°
2026-05-04 01:11 51.47141 -0.57157 2523 ft 211 kts 255°
2026-05-04 01:11 51.46758 -0.59471 2987 ft 218 kts 255°
2026-05-04 01:11 51.46369 -0.61846 3511 ft 221 kts 255°
2026-05-04 01:12 51.46007 -0.64256 4068 ft 224 kts 258°
2026-05-04 01:12 51.45797 -0.66738 4636 ft 225 kts 264°
2026-05-04 01:12 51.45677 -0.69250 5192 ft 227 kts 264°
2026-05-04 01:12 51.45568 -0.71782 5740 ft 228 kts 264°
2026-05-04 01:13 51.45456 -0.74332 6305 ft 230 kts 264°
2026-05-04 01:13 51.45351 -0.76895 6814 ft 232 kts 266°
2026-05-04 01:13 51.45322 -0.79497 7339 ft 234 kts 268°
2026-05-04 01:13 51.45312 -0.82114 7848 ft 236 kts 268°
2026-05-04 01:14 51.45297 -0.84759 8383 ft 238 kts 268°
2026-05-04 01:14 51.45303 -0.87425 8916 ft 241 kts 271°
2026-05-04 01:14 51.45516 -0.90098 9461 ft 243 kts 278°
2026-05-04 01:14 51.45824 -0.92778 9988 ft 246 kts 279°
2026-05-04 01:15 51.46142 -0.95480 10449 ft 247 kts 279°
2026-05-04 01:15 51.46459 -0.98204 10917 ft 251 kts 278°
2026-05-04 01:15 51.46779 -1.00973 11396 ft 253 kts 278°
2026-05-04 01:15 51.47099 -1.03750 11871 ft 254 kts 278°
2026-05-04 01:16 51.47419 -1.06555 12381 ft 256 kts 278°
2026-05-04 01:16 51.47739 -1.09379 12857 ft 258 kts 278°
2026-05-04 01:16 51.48061 -1.12219 13345 ft 260 kts 278°
2026-05-04 01:16 51.48385 -1.15088 13812 ft 262 kts 277°
2026-05-04 01:17 51.48715 -1.17976 14249 ft 264 kts 278°
2026-05-04 01:17 51.49234 -1.20822 14679 ft 268 kts 290°
2026-05-04 01:17 51.50193 -1.23407 15111 ft 274 kts 306°
2026-05-04 01:17 51.51467 -1.25708 15556 ft 277 kts 311°
2026-05-04 01:18 51.52850 -1.27876 15972 ft 280 kts 314°
2026-05-04 01:18 51.53800 -1.29280 16264 ft 281 kts 314°
2026-05-04 01:18 51.55259 -1.31391 16690 ft 283 kts 315°
2026-05-04 01:18 51.56726 -1.33515 17108 ft 285 kts 314°
2026-05-04 01:19 51.58191 -1.35664 17556 ft 285 kts 314°
2026-05-04 01:19 51.59630 -1.37873 17965 ft 286 kts 310°
2026-05-04 01:19 51.60884 -1.40344 18359 ft 285 kts 300°
2026-05-04 01:19 51.61944 -1.43034 18733 ft 285 kts 297°
2026-05-04 01:20 51.62928 -1.45798 19096 ft 286 kts 295°
2026-05-04 01:20 51.63877 -1.48622 19418 ft 288 kts 294°
2026-05-04 01:20 51.64810 -1.51475 19777 ft 288 kts 293°
2026-05-04 01:20 51.65742 -1.54338 20128 ft 289 kts 293°
2026-05-04 01:21 51.66680 -1.57212 20461 ft 290 kts 293°
2026-05-04 01:21 51.67625 -1.60092 20803 ft 291 kts 293°
2026-05-04 01:21 51.68577 -1.62980 21127 ft 292 kts 293°
2026-05-04 01:21 51.69465 -1.65925 21434 ft 292 kts 288°
2026-05-04 01:22 51.70163 -1.68982 21742 ft 290 kts 282°
2026-05-04 01:22 51.70634 -1.72129 22042 ft 288 kts 275°
2026-05-04 01:22 51.70952 -1.75319 22333 ft 288 kts 274°
2026-05-04 01:22 51.71210 -1.78528 22623 ft 289 kts 272°
2026-05-04 01:23 51.71438 -1.81753 22918 ft 289 kts 272°
2026-05-04 01:23 51.71654 -1.84980 23204 ft 290 kts 271°
2026-05-04 01:23 51.71872 -1.88223 23481 ft 291 kts 271°
2026-05-04 01:23 51.72094 -1.91481 23719 ft 292 kts 272°
2026-05-04 01:24 51.72319 -1.94750 23935 ft 295 kts 272°
2026-05-04 01:24 51.72548 -1.98065 24030 ft 300 kts 272°
2026-05-04 01:24 51.72783 -2.01418 24246 ft 301 kts 272°
2026-05-04 01:24 51.73021 -2.04786 24456 ft 302 kts 272°
2026-05-04 01:25 51.73260 -2.08158 24670 ft 303 kts 272°
2026-05-04 01:25 51.73498 -2.11547 24877 ft 304 kts 272°
2026-05-04 01:25 51.73739 -2.14946 25066 ft 306 kts 272°
2026-05-04 01:25 51.73978 -2.18357 25273 ft 307 kts 272°
2026-05-04 01:26 51.74214 -2.21789 25463 ft 308 kts 272°
2026-05-04 01:26 51.74447 -2.25228 25660 ft 309 kts 272°
2026-05-04 01:26 51.74681 -2.28689 25841 ft 311 kts 272°
2026-05-04 01:26 51.74916 -2.32159 26045 ft 312 kts 272°
2026-05-04 01:27 51.75151 -2.35642 26225 ft 313 kts 272°
2026-05-04 01:27 51.75387 -2.39135 26409 ft 314 kts 272°
2026-05-04 01:27 51.75622 -2.42645 26597 ft 315 kts 272°
2026-05-04 01:27 51.75855 -2.46137 26700 ft 319 kts 273°
2026-05-04 01:28 51.76092 -2.49705 26844 ft 321 kts 273°
2026-05-04 01:28 51.76329 -2.53290 27041 ft 321 kts 273°
2026-05-04 01:28 51.76570 -2.56876 27216 ft 322 kts 273°
2026-05-04 01:28 51.76807 -2.60473 27389 ft 323 kts 273°
2026-05-04 01:29 51.77046 -2.64091 27557 ft 324 kts 273°
2026-05-04 01:29 51.77281 -2.67714 27714 ft 325 kts 273°
2026-05-04 01:29 51.77514 -2.71360 27871 ft 326 kts 273°
2026-05-04 01:29 51.77745 -2.75007 28036 ft 327 kts 274°
2026-05-04 01:30 51.77978 -2.78674 28137 ft 330 kts 274°
2026-05-04 01:30 51.78212 -2.82370 28317 ft 331 kts 274°
2026-05-04 01:30 51.78446 -2.86074 28471 ft 332 kts 274°
2026-05-04 01:30 51.78679 -2.89782 28642 ft 332 kts 273°
2026-05-04 01:31 51.78912 -2.93502 28761 ft 334 kts 274°
2026-05-04 01:31 51.79379 -3.01012 29007 ft 337 kts 274°
2026-05-04 01:31 51.79612 -3.04787 29160 ft 337 kts 274°
2026-05-04 01:32 51.79844 -3.08567 29301 ft 338 kts 274°
2026-05-04 01:32 51.80075 -3.12354 29426 ft 339 kts 274°
2026-05-04 01:32 51.80305 -3.16139 29552 ft 340 kts 274°
2026-05-04 01:32 51.80535 -3.19946 29684 ft 340 kts 274°
2026-05-04 01:33 51.80764 -3.23756 29830 ft 341 kts 274°
2026-05-04 01:33 51.80992 -3.27573 29952 ft 342 kts 274°
2026-05-04 01:33 51.81218 -3.31395 30065 ft 342 kts 274°
2026-05-04 01:33 51.81444 -3.35225 30168 ft 343 kts 274°
2026-05-04 01:34 51.81670 -3.39063 30269 ft 343 kts 274°
2026-05-04 01:34 51.82118 -3.46789 30398 ft 347 kts 274°
2026-05-04 01:34 51.82344 -3.50681 30502 ft 347 kts 274°
2026-05-04 01:35 51.82662 -3.54500 30595 ft 348 kts 279°
2026-05-04 01:35 51.83598 -3.62198 30778 ft 350 kts 280°
2026-05-04 01:36 51.84597 -3.69901 30940 ft 351 kts 281°
2026-05-04 01:36 51.85604 -3.77633 31112 ft 352 kts 281°
2026-05-04 01:37 51.86604 -3.85398 31269 ft 353 kts 281°
2026-05-04 01:37 51.87597 -3.93189 31376 ft 355 kts 281°
2026-05-04 01:38 51.88593 -4.01045 31516 ft 357 kts 281°
2026-05-04 01:38 51.89585 -4.08919 31675 ft 357 kts 281°
2026-05-04 01:39 51.90575 -4.16817 31792 ft 358 kts 281°
2026-05-04 01:39 51.91561 -4.24730 31922 ft 359 kts 281°
2026-05-04 01:40 51.92545 -4.32676 32044 ft 360 kts 281°
2026-05-04 01:40 51.93519 -4.40592 32159 ft 361 kts 281°
2026-05-04 01:41 51.94501 -4.48621 32181 ft 364 kts 281°
2026-05-04 01:41 51.95482 -4.56677 32333 ft 364 kts 281°
2026-05-04 01:42 51.96459 -4.64766 32349 ft 367 kts 282°
2026-05-04 01:42 51.97437 -4.72898 32487 ft 367 kts 281°
2026-05-04 01:43 51.98410 -4.81042 32590 ft 368 kts 281°
2026-05-04 01:43 51.99378 -4.89199 32686 ft 369 kts 281°
2026-05-04 01:44 52.00346 -4.97414 32638 ft 374 kts 282°
2026-05-04 01:44 52.01315 -5.05671 32814 ft 372 kts 282°
2026-05-04 01:45 52.02273 -5.13925 32921 ft 372 kts 281°
2026-05-04 01:45 52.02459 -5.26394 32966 ft 376 kts 265°
2026-05-04 01:46 52.01910 -5.34777 33078 ft 375 kts 264°
2026-05-04 01:46 52.01295 -5.43192 33131 ft 376 kts 264°
2026-05-04 01:47 52.00677 -5.51646 33195 ft 377 kts 264°
2026-05-04 01:47 52.00066 -5.60095 33270 ft 377 kts 264°
2026-05-04 01:48 51.99452 -5.68560 33295 ft 379 kts 264°
2026-05-04 01:48 51.98832 -5.77028 33428 ft 377 kts 264°
2026-05-04 01:49 51.98205 -5.85506 33431 ft 379 kts 264°
2026-05-04 01:49 51.97566 -5.94034 33362 ft 383 kts 264°
2026-05-04 01:50 51.96923 -6.02549 33440 ft 383 kts 264°
2026-05-04 01:50 51.96263 -6.11205 33510 ft 383 kts 264°
2026-05-04 01:51 51.95609 -6.19702 33581 ft 383 kts 264°
2026-05-04 01:51 51.94950 -6.28312 33591 ft 385 kts 264°
2026-05-04 01:52 51.94348 -6.36896 33706 ft 383 kts 265°
2026-05-04 01:52 51.93748 -6.45525 33663 ft 386 kts 265°
2026-05-04 01:53 51.93132 -6.54161 33718 ft 386 kts 265°
2026-05-04 01:53 51.92505 -6.62794 33772 ft 386 kts 265°
2026-05-04 01:54 51.91869 -6.71442 33825 ft 386 kts 265°
2026-05-04 01:54 51.91227 -6.80082 33864 ft 387 kts 264°
2026-05-04 01:55 51.90577 -6.88749 33850 ft 389 kts 265°
2026-05-04 01:55 51.89918 -6.97440 33896 ft 389 kts 265°
2026-05-04 01:56 51.89253 -7.06134 33940 ft 389 kts 265°
2026-05-04 01:56 51.88581 -7.14827 33973 ft 389 kts 264°
2026-05-04 01:57 51.87907 -7.23462 34001 ft 390 kts 264°
2026-05-04 01:57 51.87222 -7.32157 34002 ft 390 kts 264°
2026-05-04 01:58 51.86529 -7.40856 33999 ft 390 kts 265°
2026-05-04 01:58 51.85828 -7.49586 34002 ft 391 kts 265°
2026-05-04 01:59 51.85121 -7.58319 34000 ft 392 kts 264°
2026-05-04 01:59 51.84406 -7.67053 33997 ft 392 kts 264°
2026-05-04 02:00 51.83684 -7.75781 34001 ft 392 kts 264°
2026-05-04 02:00 51.82955 -7.84514 33999 ft 392 kts 265°
2026-05-04 02:01 51.82220 -7.93260 33995 ft 393 kts 264°
2026-05-04 02:01 51.81480 -8.01980 34000 ft 395 kts 264°
2026-05-04 02:02 51.80726 -8.10780 33994 ft 396 kts 264°
2026-05-04 02:02 51.79964 -8.19584 33993 ft 396 kts 264°
2026-05-04 02:03 51.79196 -8.28392 33989 ft 396 kts 264°
2026-05-04 02:03 51.78419 -8.37202 33995 ft 397 kts 265°
2026-05-04 02:04 51.77634 -8.46045 33995 ft 398 kts 264°
2026-05-04 02:04 51.76841 -8.54907 33991 ft 400 kts 264°
2026-05-04 02:05 51.76038 -8.63784 34000 ft 400 kts 264°
2026-05-04 02:05 51.75228 -8.72658 33998 ft 399 kts 264°
2026-05-04 02:06 51.74411 -8.81525 34002 ft 400 kts 265°
2026-05-04 02:06 51.73590 -8.90399 34007 ft 401 kts 265°
2026-05-04 02:07 51.72764 -8.99249 34012 ft 402 kts 265°
2026-05-04 02:07 51.71922 -9.08184 34016 ft 404 kts 265°
2026-05-04 02:08 51.71069 -9.17146 34017 ft 404 kts 265°
2026-05-04 02:08 51.70209 -9.26098 34018 ft 404 kts 265°
2026-05-04 02:09 51.69489 -9.33540 34013 ft 405 kts 265°
2026-05-04 02:09 51.68616 -9.42515 34018 ft 406 kts 265°
2026-05-04 02:10 51.67734 -9.51514 34015 ft 406 kts 265°
2026-05-04 02:10 51.66844 -9.60510 34005 ft 406 kts 265°
2026-05-04 02:11 51.65948 -9.69484 34019 ft 406 kts 265°
2026-05-04 02:11 51.65043 -9.78471 34021 ft 407 kts 265°
2026-05-04 02:12 51.64132 -9.87473 34020 ft 408 kts 265°
2026-05-04 02:12 51.63210 -9.96513 34019 ft 410 kts 265°
2026-05-04 02:13 51.62278 -10.05555 34021 ft 409 kts 265°
2026-05-04 02:13 51.61345 -10.14538 34022 ft 409 kts 265°
2026-05-04 02:14 51.60399 -10.23577 34024 ft 410 kts 265°
2026-05-04 02:14 51.59458 -10.32503 34031 ft 410 kts 265°
2026-05-04 02:15 51.58498 -10.41537 34030 ft 410 kts 265°
2026-05-04 02:15 51.57532 -10.50564 34031 ft 410 kts 265°
2026-05-04 02:16 51.56557 -10.59647 34019 ft 415 kts 264°
2026-05-04 02:16 51.55556 -10.68850 34044 ft 421 kts 264°
2026-05-04 02:17 51.54542 -10.78114 34037 ft 427 kts 264°
2026-05-04 02:17 51.53502 -10.87533 34041 ft 429 kts 264°
2026-05-04 02:18 51.52452 -10.96957 34045 ft 429 kts 264°
2026-05-04 02:18 51.51396 -11.06376 34048 ft 429 kts 264°
2026-05-04 02:19 51.50331 -11.15798 34040 ft 429 kts 264°
2026-05-04 02:19 51.49257 -11.25245 34054 ft 430 kts 264°
2026-05-04 02:20 51.48181 -11.34635 34054 ft 431 kts 264°
2026-05-04 02:20 51.47091 -11.44076 34057 ft 431 kts 264°
2026-05-04 02:21 51.45993 -11.53512 34058 ft 431 kts 264°
2026-05-04 02:21 51.44887 -11.62947 34061 ft 431 kts 264°
2026-05-04 02:22 51.43771 -11.72398 34064 ft 431 kts 264°
2026-05-04 02:22 51.42649 -11.81839 34072 ft 432 kts 264°
2026-05-04 02:23 51.41517 -11.91293 34075 ft 432 kts 264°
2026-05-04 02:23 51.40379 -12.00726 34080 ft 432 kts 264°
2026-05-04 02:24 51.39232 -12.10163 34078 ft 432 kts 264°
2026-05-04 02:24 51.38076 -12.19615 34091 ft 433 kts 264°
2026-05-04 02:25 51.36919 -12.29006 34091 ft 433 kts 264°
2026-05-04 02:25 51.35748 -12.38443 34097 ft 433 kts 264°
2026-05-04 02:26 51.34567 -12.47888 34097 ft 433 kts 264°
2026-05-04 02:26 51.33380 -12.57322 34104 ft 433 kts 264°
2026-05-04 02:27 51.32186 -12.66758 34105 ft 433 kts 263°
2026-05-04 02:27 51.30982 -12.76197 34113 ft 434 kts 263°
2026-05-04 02:28 51.29769 -12.85641 34113 ft 434 kts 263°
2026-05-04 02:28 51.28549 -12.95074 34121 ft 434 kts 263°
2026-05-04 02:29 51.27320 -13.04513 34121 ft 434 kts 263°
2026-05-04 02:29 51.26085 -13.13936 34127 ft 434 kts 263°
2026-05-04 02:30 51.24841 -13.23359 34127 ft 434 kts 263°
2026-05-04 02:30 51.23589 -13.32786 34132 ft 434 kts 263°
2026-05-04 02:31 51.22329 -13.42212 34132 ft 434 kts 263°
2026-05-04 02:31 51.21071 -13.51564 34135 ft 434 kts 263°
2026-05-04 02:32 51.19796 -13.60978 34138 ft 434 kts 262°
2026-05-04 02:32 51.18513 -13.70392 34143 ft 434 kts 262°
2026-05-04 02:33 51.17223 -13.79796 34143 ft 434 kts 262°
2026-05-04 02:33 51.15926 -13.89190 34147 ft 434 kts 262°
2026-05-04 02:34 51.14621 -13.98583 34157 ft 434 kts 262°
2026-05-04 02:34 51.13310 -14.07956 34159 ft 434 kts 262°
2026-05-04 02:35 51.11992 -14.17328 34165 ft 434 kts 262°
2026-05-04 02:35 51.10666 -14.26693 34161 ft 434 kts 262°
2026-05-04 02:36 51.09332 -14.36059 34165 ft 434 kts 261°
2026-05-04 02:36 51.07991 -14.45412 34164 ft 433 kts 261°
2026-05-04 02:37 51.06654 -14.54681 34172 ft 433 kts 261°
2026-05-04 02:37 51.05301 -14.64009 34170 ft 433 kts 261°
2026-05-04 02:38 51.03937 -14.73347 34177 ft 433 kts 261°
2026-05-04 02:38 51.02569 -14.82667 34174 ft 433 kts 261°
2026-05-04 02:39 51.01248 -14.91993 34181 ft 431 kts 265°
2026-05-04 02:39 51.00995 -15.01377 34179 ft 420 kts 282°
2026-05-04 02:40 51.02278 -15.10249 34191 ft 409 kts 295°
2026-05-04 02:40 51.04151 -15.18752 34191 ft 408 kts 297°
2026-05-04 02:41 51.06092 -15.27224 34188 ft 408 kts 297°
2026-05-04 02:41 51.08008 -15.35705 34189 ft 408 kts 296°
2026-05-04 02:42 51.09899 -15.44213 34196 ft 408 kts 296°
2026-05-04 02:42 51.11778 -15.52728 34197 ft 408 kts 296°
2026-05-04 02:43 51.13649 -15.61242 34200 ft 408 kts 296°
2026-05-04 02:43 51.15517 -15.69772 34203 ft 408 kts 296°
2026-05-04 02:44 51.17378 -15.78302 34210 ft 408 kts 296°
2026-05-04 02:44 51.19235 -15.86851 34211 ft 408 kts 295°
2026-05-04 02:45 51.21082 -15.95387 34213 ft 407 kts 295°
2026-05-04 02:45 51.22919 -16.03914 34215 ft 406 kts 295°
2026-05-04 02:46 51.24747 -16.12435 34218 ft 406 kts 294°
2026-05-04 02:46 51.26569 -16.20961 34221 ft 406 kts 294°
2026-05-04 02:47 51.28388 -16.29511 34223 ft 406 kts 294°
2026-05-04 02:47 51.30199 -16.38061 34226 ft 406 kts 294°
2026-05-04 02:48 51.32003 -16.46610 34221 ft 406 kts 294°
2026-05-04 02:48 51.33800 -16.55161 34233 ft 406 kts 294°
2026-05-04 02:49 51.35589 -16.63717 34229 ft 405 kts 293°
2026-05-04 02:49 51.37369 -16.72261 34239 ft 404 kts 293°
2026-05-04 02:50 51.39130 -16.80751 34238 ft 404 kts 293°
2026-05-04 02:50 51.40894 -16.89293 34238 ft 404 kts 293°
2026-05-04 02:51 51.42654 -16.97852 34241 ft 404 kts 293°
2026-05-04 02:51 51.44408 -17.06418 34241 ft 404 kts 292°
2026-05-04 02:52 51.46153 -17.14979 34246 ft 404 kts 292°
2026-05-04 02:52 51.47889 -17.23533 34246 ft 404 kts 292°
2026-05-04 02:53 51.49612 -17.32055 34249 ft 403 kts 292°
2026-05-04 02:53 51.51332 -17.40608 34249 ft 403 kts 291°
2026-05-04 02:54 51.53047 -17.49165 34249 ft 403 kts 291°
2026-05-04 02:54 51.54755 -17.57729 34252 ft 403 kts 291°
2026-05-04 02:55 51.57303 -17.70582 34255 ft 401 kts 291°
2026-05-04 02:56 51.58993 -17.79144 34256 ft 401 kts 291°
2026-05-04 02:56 51.60675 -17.87704 34257 ft 401 kts 291°
2026-05-04 02:57 51.62348 -17.96263 34242 ft 401 kts 290°
2026-05-04 02:57 51.64014 -18.04816 34256 ft 400 kts 290°
2026-05-04 02:58 51.65670 -18.13366 34262 ft 399 kts 290°
2026-05-04 02:58 51.67042 -18.20472 34255 ft 399 kts 289°
2026-05-04 02:59 51.68681 -18.29004 34260 ft 398 kts 289°
2026-05-04 02:59 51.70310 -18.37517 34265 ft 398 kts 289°
2026-05-04 03:00 51.72198 -18.47433 34279 ft 398 kts 289°
2026-05-04 03:00 51.73553 -18.54579 34286 ft 398 kts 289°
2026-05-04 03:01 51.75165 -18.63119 34270 ft 398 kts 289°
2026-05-04 03:01 51.76772 -18.71666 34276 ft 397 kts 289°
2026-05-04 03:02 51.78364 -18.80178 34270 ft 396 kts 288°
2026-05-04 03:02 51.79950 -18.88694 34273 ft 395 kts 288°
2026-05-04 03:03 51.81516 -18.97144 34275 ft 395 kts 288°
2026-05-04 03:03 51.83082 -19.05646 34279 ft 395 kts 288°
2026-05-04 03:04 51.84646 -19.14159 34279 ft 395 kts 288°
2026-05-04 03:04 51.86209 -19.22706 34280 ft 396 kts 288°
2026-05-04 03:05 51.87765 -19.31257 34280 ft 395 kts 288°
2026-05-04 03:05 51.89312 -19.39796 34277 ft 394 kts 287°
2026-05-04 03:06 51.90843 -19.48294 34289 ft 393 kts 287°
2026-05-04 03:06 51.92365 -19.56788 34289 ft 394 kts 287°
2026-05-04 03:07 51.93886 -19.65306 34285 ft 393 kts 287°
2026-05-04 03:07 51.95406 -19.73859 34293 ft 395 kts 287°
2026-05-04 03:08 51.96916 -19.82388 34291 ft 393 kts 287°
2026-05-04 03:08 51.98419 -19.90927 34291 ft 393 kts 287°
2026-05-04 03:09 51.99784 -19.99434 34285 ft 391 kts 281°
2026-05-04 03:09 52.00364 -20.08158 34290 ft 388 kts 276°
2026-05-04 03:10 52.00738 -20.16881 34291 ft 387 kts 275°
2026-05-04 03:10 52.01074 -20.25578 34293 ft 385 kts 274°
2026-05-04 03:11 52.01409 -20.34259 34293 ft 385 kts 275°
2026-05-04 03:11 52.01747 -20.42936 34295 ft 385 kts 275°
2026-05-04 03:12 52.02082 -20.51616 34295 ft 385 kts 274°
2026-05-04 03:12 52.02408 -20.60289 34300 ft 385 kts 275°
2026-05-04 03:13 52.02729 -20.68973 34298 ft 385 kts 274°
2026-05-04 03:13 52.03044 -20.77660 34301 ft 385 kts 274°
2026-05-04 03:14 52.03351 -20.86343 34306 ft 385 kts 274°
2026-05-04 03:14 52.03652 -20.95028 34306 ft 385 kts 275°
2026-05-04 03:15 52.03948 -21.03710 34303 ft 385 kts 274°
2026-05-04 03:15 52.04234 -21.12388 34306 ft 384 kts 275°
2026-05-04 03:16 52.04516 -21.21033 34307 ft 383 kts 275°
2026-05-04 03:16 52.04792 -21.29689 34311 ft 384 kts 274°
2026-05-04 03:17 52.05058 -21.38330 34314 ft 382 kts 275°
2026-05-04 03:17 52.05317 -21.46874 34316 ft 381 kts 275°
2026-05-04 03:18 52.05573 -21.55475 34317 ft 382 kts 274°
2026-05-04 03:18 52.05820 -21.64085 34315 ft 381 kts 275°
2026-05-04 03:19 52.06061 -21.72674 34317 ft 380 kts 275°
2026-05-04 03:19 52.06297 -21.81259 34317 ft 381 kts 275°
2026-05-04 03:20 52.06525 -21.89855 34324 ft 380 kts 275°
2026-05-04 03:20 52.06748 -21.98432 34328 ft 380 kts 275°
2026-05-04 03:21 52.06965 -22.07026 34325 ft 381 kts 275°
2026-05-04 03:21 52.07174 -22.15613 34325 ft 380 kts 274°
2026-05-04 03:22 52.07377 -22.24171 34331 ft 379 kts 274°
2026-05-04 03:22 52.07575 -22.32730 34329 ft 379 kts 274°
2026-05-04 03:23 52.07764 -22.41290 34330 ft 379 kts 274°
2026-05-04 03:23 52.07950 -22.49846 34331 ft 378 kts 273°
2026-05-04 03:24 52.08128 -22.58384 34338 ft 378 kts 274°
2026-05-04 03:24 52.08297 -22.66864 34335 ft 377 kts 273°
2026-05-04 03:25 52.08462 -22.75354 34336 ft 375 kts 272°
2026-05-04 03:25 52.08621 -22.83853 34341 ft 376 kts 273°
2026-05-04 03:26 52.08772 -22.92340 34340 ft 375 kts 273°
2026-05-04 03:26 52.08919 -23.00816 34347 ft 375 kts 272°
2026-05-04 03:27 52.09059 -23.09322 34348 ft 376 kts 272°
2026-05-04 03:27 52.09193 -23.17833 34349 ft 375 kts 272°
2026-05-04 03:28 52.09321 -23.26312 34351 ft 375 kts 272°
2026-05-04 03:28 52.09443 -23.34818 34350 ft 376 kts 272°
2026-05-04 03:29 52.09558 -23.43311 34355 ft 375 kts 272°
2026-05-04 03:29 52.09668 -23.51795 34356 ft 376 kts 272°
2026-05-04 03:30 52.09772 -23.60304 34352 ft 376 kts 272°
2026-05-04 03:30 52.09869 -23.68791 34358 ft 374 kts 272°
2026-05-04 03:31 52.09959 -23.77206 34354 ft 375 kts 272°
2026-05-04 03:31 52.10044 -23.85701 34363 ft 376 kts 272°
2026-05-04 03:32 52.10123 -23.94209 34363 ft 376 kts 272°
2026-05-04 03:32 52.10197 -24.02719 34363 ft 377 kts 272°
2026-05-04 03:33 52.10263 -24.11244 34366 ft 376 kts 272°
2026-05-04 03:33 52.10324 -24.19739 34366 ft 376 kts 272°
2026-05-04 03:34 52.10379 -24.28261 34355 ft 376 kts 272°
2026-05-04 03:34 52.10427 -24.36781 34364 ft 376 kts 272°
2026-05-04 03:35 52.10470 -24.45296 34366 ft 376 kts 272°
2026-05-04 03:35 52.10506 -24.53822 34368 ft 376 kts 272°
2026-05-04 03:36 52.10536 -24.62328 34368 ft 376 kts 272°
2026-05-04 03:36 52.10560 -24.70842 34373 ft 376 kts 271°
2026-05-04 03:37 52.10579 -24.79313 34376 ft 376 kts 271°
2026-05-04 03:37 52.10592 -24.87802 34376 ft 375 kts 271°
2026-05-04 03:38 52.10597 -24.96271 34376 ft 375 kts 271°
2026-05-04 03:38 52.10596 -25.04749 34376 ft 375 kts 270°
2026-05-04 03:39 52.10589 -25.13226 34378 ft 374 kts 270°
2026-05-04 03:39 52.10577 -25.21692 34379 ft 375 kts 270°
2026-05-04 03:40 52.10558 -25.30171 34378 ft 375 kts 270°
2026-05-04 03:40 52.10534 -25.38642 34373 ft 374 kts 270°
2026-05-04 03:41 52.10503 -25.47101 34382 ft 374 kts 270°
2026-05-04 03:41 52.10466 -25.55568 34381 ft 374 kts 270°
2026-05-04 03:42 52.10423 -25.64027 34383 ft 374 kts 270°
2026-05-04 03:42 52.10374 -25.72495 34382 ft 374 kts 270°
2026-05-04 03:43 52.10319 -25.80952 34386 ft 374 kts 270°
2026-05-04 03:43 52.10259 -25.89361 34387 ft 374 kts 270°
2026-05-04 03:44 52.10192 -25.97880 34386 ft 374 kts 269°
2026-05-04 03:44 52.10119 -26.06256 34390 ft 373 kts 269°
2026-05-04 03:45 52.10040 -26.14691 34389 ft 373 kts 269°
2026-05-04 03:45 52.09955 -26.23126 34389 ft 373 kts 269°
2026-05-04 03:46 52.09864 -26.31553 34389 ft 373 kts 269°
2026-05-04 03:46 52.09784 -26.38566 34389 ft 373 kts 269°
2026-05-04 03:47 52.09682 -26.46999 34391 ft 373 kts 269°
2026-05-04 03:47 52.09575 -26.55420 34392 ft 372 kts 269°
2026-05-04 03:48 52.09461 -26.63848 34392 ft 372 kts 269°
2026-05-04 03:48 52.09341 -26.72254 34395 ft 372 kts 269°
2026-05-04 03:49 52.09215 -26.80679 34394 ft 372 kts 269°
2026-05-04 03:49 52.09084 -26.89090 34401 ft 372 kts 269°
2026-05-04 03:50 52.08946 -26.97495 34398 ft 372 kts 269°
2026-05-04 03:50 52.08803 -27.05892 34397 ft 372 kts 268°
2026-05-04 03:51 52.08654 -27.14247 34408 ft 361 kts 268°
2026-05-04 03:51 52.08642 -27.14871 34408 ft 358 kts 268°
2026-05-04 03:52 52.08618 -27.16213 34400 ft 353 kts 268°
2026-05-04 03:52 52.08468 -27.24250 34396 ft 361 kts 268°
2026-05-04 03:53 52.08308 -27.32532 34464 ft 371 kts 268°
2026-05-04 03:53 52.08139 -27.41003 34612 ft 379 kts 268°
2026-05-04 03:54 52.07960 -27.49637 34776 ft 386 kts 268°
2026-05-04 03:54 52.07769 -27.58453 34946 ft 394 kts 269°
2026-05-04 03:55 52.07570 -27.67439 35133 ft 402 kts 269°
2026-05-04 03:55 52.07360 -27.76606 35301 ft 410 kts 269°
2026-05-04 03:56 52.07138 -27.85942 35483 ft 418 kts 269°
2026-05-04 03:56 52.06905 -27.95415 35653 ft 426 kts 268°
2026-05-04 03:56 52.06783 -28.00241 35759 ft 430 kts 268°
2026-05-04 03:57 52.06658 -28.05121 35857 ft 434 kts 268°
2026-05-04 03:57 52.06399 -28.14984 36044 ft 441 kts 269°
2026-05-04 03:58 52.05986 -28.30124 36343 ft 452 kts 269°
2026-05-04 03:58 52.05694 -28.40409 36527 ft 459 kts 269°
2026-05-04 03:59 52.05388 -28.50829 36727 ft 464 kts 268°
2026-05-04 03:59 52.05231 -28.56066 36934 ft 465 kts 268°
2026-05-04 03:59 52.05071 -28.61316 37110 ft 465 kts 268°
2026-05-04 04:00 52.04909 -28.66559 37321 ft 465 kts 268°
2026-05-04 04:00 52.04745 -28.71805 37520 ft 465 kts 268°
2026-05-04 04:00 52.04579 -28.77050 37704 ft 465 kts 268°
2026-05-04 04:00 52.04409 -28.82310 37879 ft 466 kts 268°
2026-05-04 04:01 52.04238 -28.87555 38063 ft 466 kts 268°
2026-05-04 04:01 52.04064 -28.92815 38214 ft 466 kts 268°
2026-05-04 04:01 52.03888 -28.98074 38369 ft 467 kts 268°
2026-05-04 04:01 52.03709 -29.03353 38413 ft 468 kts 268°
2026-05-04 04:02 52.03343 -29.13883 38415 ft 467 kts 268°
2026-05-04 04:02 52.02971 -29.24346 38419 ft 467 kts 268°
2026-05-04 04:03 52.02587 -29.34889 38424 ft 467 kts 267°
2026-05-04 04:03 52.02194 -29.45424 38415 ft 467 kts 267°
2026-05-04 04:04 52.01791 -29.55955 38419 ft 467 kts 267°
2026-05-04 04:04 52.01379 -29.66482 38423 ft 467 kts 267°
2026-05-04 04:05 52.00958 -29.77014 38425 ft 467 kts 267°
2026-05-04 04:05 52.00527 -29.87538 38421 ft 467 kts 267°
2026-05-04 04:06 52.00113 -29.98051 38417 ft 467 kts 269°
2026-05-04 04:06 52.00350 -30.08582 38420 ft 466 kts 274°
2026-05-04 04:07 52.00772 -30.19075 38419 ft 466 kts 274°
2026-05-04 04:07 52.01215 -30.29587 38416 ft 466 kts 274°
2026-05-04 04:08 52.01638 -30.40073 38433 ft 466 kts 274°
2026-05-04 04:08 52.02045 -30.50573 38417 ft 466 kts 274°
2026-05-04 04:09 52.02440 -30.61073 38420 ft 466 kts 274°
2026-05-04 04:09 52.02691 -30.67859 38416 ft 466 kts 274°
2026-05-04 04:10 52.03053 -30.77883 38433 ft 466 kts 274°
2026-05-04 04:10 52.03425 -30.88384 38421 ft 466 kts 274°
2026-05-04 04:11 52.03787 -30.98886 38427 ft 465 kts 273°
2026-05-04 04:11 52.03884 -31.01773 38488 ft 465 kts 273°
2026-05-04 04:12 52.04048 -31.06663 38434 ft 468 kts 273°
2026-05-04 04:12 52.04191 -31.10999 38427 ft 467 kts 273°
2026-05-04 04:13 52.04534 -31.21509 38423 ft 465 kts 273°
2026-05-04 04:13 52.04864 -31.31927 38419 ft 465 kts 273°
2026-05-04 04:14 52.05187 -31.42430 38436 ft 465 kts 273°
2026-05-04 04:14 52.05500 -31.52924 38420 ft 465 kts 273°
2026-05-04 04:15 52.05804 -31.63428 38423 ft 465 kts 273°
2026-05-04 04:15 52.06099 -31.73925 38427 ft 465 kts 272°
2026-05-04 04:16 52.06385 -31.84434 38440 ft 465 kts 272°
2026-05-04 04:16 52.06660 -31.94934 38427 ft 465 kts 272°
2026-05-04 04:17 52.06927 -32.05438 38429 ft 465 kts 272°
2026-05-04 04:17 52.07059 -32.10750 38428 ft 465 kts 272°
2026-05-04 04:18 52.07312 -32.21257 38423 ft 465 kts 272°
2026-05-04 04:18 52.07554 -32.31744 38423 ft 465 kts 272°
2026-05-04 04:19 52.07788 -32.42252 38430 ft 465 kts 272°
2026-05-04 04:19 52.08013 -32.52749 38428 ft 465 kts 272°
2026-05-04 04:20 52.08228 -32.63266 38421 ft 465 kts 272°
2026-05-04 04:20 52.08434 -32.73772 38429 ft 465 kts 271°
2026-05-04 04:21 52.08631 -32.84279 38436 ft 465 kts 271°
2026-05-04 04:21 52.08818 -32.94788 38423 ft 465 kts 271°
2026-05-04 04:22 52.08996 -33.05302 38429 ft 465 kts 271°
2026-05-04 04:22 52.09164 -33.15818 38431 ft 465 kts 271°
2026-05-04 04:23 52.09324 -33.26335 38435 ft 465 kts 271°
2026-05-04 04:23 52.09473 -33.36795 38428 ft 466 kts 271°
2026-05-04 04:24 52.09615 -33.47400 38437 ft 466 kts 271°
2026-05-04 04:24 52.09745 -33.57871 38429 ft 466 kts 271°
2026-05-04 04:25 52.09868 -33.68464 38519 ft 466 kts 271°
2026-05-04 04:25 52.09980 -33.78978 38432 ft 467 kts 271°
2026-05-04 04:26 52.10084 -33.89533 38428 ft 467 kts 270°
2026-05-04 04:26 52.10178 -34.00086 38435 ft 467 kts 270°
2026-05-04 04:27 52.10262 -34.10648 38422 ft 467 kts 270°
2026-05-04 04:27 52.10337 -34.21207 38426 ft 467 kts 270°
2026-05-04 04:28 52.10403 -34.31764 38433 ft 467 kts 270°
2026-05-04 04:28 52.10458 -34.42034 38418 ft 467 kts 270°
2026-05-04 04:30 52.10492 -34.49479 38424 ft 467 kts 270°
2026-05-04 04:30 52.10502 -34.51955 38420 ft 467 kts 270°
2026-05-04 04:31 52.10530 -34.59359 38427 ft 467 kts 270°
2026-05-04 04:31 52.10561 -34.69921 38424 ft 467 kts 270°
2026-05-04 04:32 52.10581 -34.78778 38418 ft 467 kts 270°
2026-05-04 04:32 52.10595 -34.89345 38421 ft 467 kts 270°
2026-05-04 04:33 52.10599 -34.98162 38419 ft 467 kts 270°
2026-05-04 04:33 52.10598 -35.06048 38426 ft 467 kts 270°
2026-05-04 04:34 52.10588 -35.16522 38416 ft 467 kts 270°
2026-05-04 04:34 52.10569 -35.27098 38408 ft 467 kts 269°
2026-05-04 04:35 52.10540 -35.37662 38407 ft 467 kts 269°
2026-05-04 04:35 52.10501 -35.48220 38412 ft 467 kts 269°
2026-05-04 04:36 52.10453 -35.58784 38417 ft 467 kts 269°
2026-05-04 04:36 52.10396 -35.69346 38408 ft 467 kts 269°
2026-05-04 04:37 52.10254 -35.90469 38398 ft 467 kts 269°
2026-05-04 04:38 52.10168 -36.01023 38419 ft 467 kts 269°
2026-05-04 04:38 52.10073 -36.11585 38403 ft 467 kts 269°
2026-05-04 04:39 52.09968 -36.22180 38386 ft 467 kts 269°
2026-05-04 04:39 52.09854 -36.32749 38408 ft 468 kts 269°
2026-05-04 04:40 52.09731 -36.43330 38397 ft 468 kts 269°
2026-05-04 04:40 52.09598 -36.53916 38402 ft 468 kts 269°
2026-05-04 04:41 52.09455 -36.64512 38397 ft 469 kts 269°
2026-05-04 04:41 52.09302 -36.75106 38395 ft 468 kts 268°
2026-05-04 04:42 52.09140 -36.85695 38384 ft 468 kts 269°
2026-05-04 04:42 52.08970 -36.96227 38397 ft 465 kts 269°
2026-05-04 04:43 52.08791 -37.06737 38387 ft 465 kts 268°
2026-05-04 04:43 52.08603 -37.17232 38380 ft 465 kts 268°
2026-05-04 04:44 52.08405 -37.27733 38394 ft 464 kts 268°
2026-05-04 04:44 52.08198 -37.38219 38390 ft 464 kts 268°
2026-05-04 04:45 52.07982 -37.48691 38379 ft 464 kts 268°
2026-05-04 04:47 52.07153 -37.85345 38380 ft 463 kts 268°
2026-05-04 04:47 52.06896 -37.95808 38371 ft 463 kts 268°
2026-05-04 04:48 52.06629 -38.06265 38368 ft 463 kts 268°
2026-05-04 04:49 52.05924 -38.32339 38362 ft 462 kts 268°
2026-05-04 04:49 52.05626 -38.42755 38363 ft 462 kts 268°
2026-05-04 04:50 52.05318 -38.53177 38359 ft 461 kts 268°
2026-05-04 04:50 52.05004 -38.63518 38344 ft 461 kts 268°
2026-05-04 04:51 52.04680 -38.73905 38337 ft 460 kts 268°
2026-05-04 04:51 52.04344 -38.84358 38353 ft 460 kts 268°
2026-05-04 04:52 52.04001 -38.94738 38344 ft 460 kts 267°
2026-05-04 04:52 52.03649 -39.05111 38337 ft 460 kts 267°
2026-05-04 04:53 52.03288 -39.15483 38340 ft 460 kts 267°
2026-05-04 04:53 52.02921 -39.25784 38330 ft 460 kts 267°
2026-05-04 04:54 52.02540 -39.36201 38338 ft 459 kts 267°
2026-05-04 04:54 52.02153 -39.46547 38320 ft 459 kts 267°
2026-05-04 04:55 52.01759 -39.56813 38327 ft 459 kts 267°
2026-05-04 04:55 52.01354 -39.67149 38326 ft 459 kts 267°
2026-05-04 04:56 52.00940 -39.77484 38318 ft 459 kts 267°
2026-05-04 04:56 52.00517 -39.87817 38311 ft 458 kts 267°
2026-05-04 04:57 52.00085 -39.98127 38312 ft 458 kts 267°
2026-05-04 04:57 51.99592 -40.08428 38311 ft 458 kts 266°
2026-05-04 04:58 51.98979 -40.18717 38308 ft 458 kts 265°
2026-05-04 04:58 51.98356 -40.28998 38308 ft 458 kts 265°
2026-05-04 04:59 51.97742 -40.39285 38286 ft 458 kts 266°
2026-05-04 04:59 51.97127 -40.49573 38300 ft 458 kts 266°
2026-05-04 05:00 51.96507 -40.59838 38294 ft 457 kts 266°
2026-05-04 05:01 51.95557 -40.75249 38292 ft 457 kts 266°
2026-05-04 05:01 51.94913 -40.85498 38286 ft 457 kts 265°
2026-05-04 05:02 51.94260 -40.95753 38275 ft 457 kts 265°
2026-05-04 05:02 51.93597 -41.06002 38279 ft 457 kts 266°
2026-05-04 05:03 51.92926 -41.16242 38278 ft 457 kts 266°
2026-05-04 05:04 51.91559 -41.36718 38264 ft 457 kts 266°
2026-05-04 05:04 51.90862 -41.46943 38266 ft 457 kts 265°
2026-05-04 05:06 51.87994 -41.87706 38247 ft 454 kts 266°
2026-05-04 05:07 51.87257 -41.97864 38247 ft 454 kts 266°
2026-05-04 05:07 51.86516 -42.07957 38233 ft 454 kts 266°
2026-05-04 05:09 51.83075 -42.53285 38216 ft 449 kts 266°
2026-05-04 05:10 51.82291 -42.63303 38211 ft 449 kts 266°
2026-05-04 05:10 51.81499 -42.73304 38191 ft 448 kts 266°
2026-05-04 05:11 51.80704 -42.83220 38207 ft 442 kts 266°
2026-05-04 05:11 51.80041 -42.91405 38205 ft 441 kts 266°
2026-05-04 05:12 51.79240 -43.01243 38198 ft 442 kts 266°
2026-05-04 05:12 51.78297 -43.12676 38196 ft 442 kts 266°
2026-05-04 05:13 51.77610 -43.20911 38190 ft 442 kts 266°
2026-05-04 05:13 51.76782 -43.30738 38194 ft 441 kts 265°
2026-05-04 05:14 51.75947 -43.40545 38178 ft 440 kts 265°
2026-05-04 05:14 51.75106 -43.50327 38178 ft 440 kts 265°
2026-05-04 05:15 51.74259 -43.60094 38178 ft 440 kts 265°
2026-05-04 05:15 51.73403 -43.69862 38165 ft 440 kts 265°
2026-05-04 05:16 51.72537 -43.79636 38165 ft 440 kts 265°
2026-05-04 05:16 51.71666 -43.89391 38154 ft 438 kts 265°
2026-05-04 05:17 51.70799 -43.98971 38157 ft 433 kts 265°
2026-05-04 05:17 51.69920 -44.08622 38142 ft 432 kts 265°
2026-05-04 05:18 51.69041 -44.18195 38155 ft 432 kts 264°
2026-05-04 05:18 51.68161 -44.27679 38141 ft 429 kts 264°
2026-05-04 05:19 51.67271 -44.37182 38130 ft 429 kts 264°
2026-05-04 05:19 51.66374 -44.46671 38123 ft 427 kts 265°
2026-05-04 05:20 51.65474 -44.56117 38117 ft 426 kts 264°
2026-05-04 05:20 51.64569 -44.65541 38118 ft 426 kts 264°
2026-05-04 05:21 51.63655 -44.74958 38118 ft 426 kts 264°
2026-05-04 05:21 51.62734 -44.84379 38110 ft 426 kts 264°
2026-05-04 05:22 51.61804 -44.93795 38101 ft 426 kts 264°
2026-05-04 05:22 51.60867 -45.03223 38105 ft 428 kts 264°
2026-05-04 05:23 51.59911 -45.12782 38088 ft 437 kts 264°
2026-05-04 05:23 51.58932 -45.22453 38083 ft 438 kts 264°
2026-05-04 05:24 51.57944 -45.32108 38083 ft 437 kts 264°
2026-05-04 05:24 51.56950 -45.41758 38078 ft 437 kts 263°
2026-05-04 05:25 51.55948 -45.51403 38069 ft 438 kts 263°
2026-05-04 05:25 51.54939 -45.61056 38071 ft 440 kts 263°
2026-05-04 05:26 51.53909 -45.70829 38060 ft 444 kts 263°
2026-05-04 05:26 51.52867 -45.80607 38053 ft 444 kts 263°
2026-05-04 05:28 51.48605 -46.19831 38031 ft 450 kts 262°
2026-05-04 05:29 51.47506 -46.29747 38031 ft 452 kts 262°
2026-05-04 05:29 51.46397 -46.39663 38020 ft 452 kts 261°
2026-05-04 05:31 51.41874 -46.79340 37997 ft 455 kts 260°
2026-05-04 05:32 51.40714 -46.89321 37995 ft 456 kts 260°
2026-05-04 05:33 51.38955 -47.04295 37987 ft 456 kts 260°
2026-05-04 05:33 51.37772 -47.14268 37982 ft 456 kts 260°
2026-05-04 05:34 51.36581 -47.24249 37968 ft 456 kts 259°
2026-05-04 05:34 51.35379 -47.34237 37974 ft 458 kts 259°
2026-05-04 05:35 51.34166 -47.44230 37968 ft 458 kts 259°
2026-05-04 05:35 51.32945 -47.54223 37961 ft 458 kts 259°
2026-05-04 05:36 51.31715 -47.64215 37960 ft 458 kts 259°
2026-05-04 05:36 51.30476 -47.74204 37946 ft 458 kts 259°
2026-05-04 05:37 51.29232 -47.84166 37944 ft 455 kts 258°
2026-05-04 05:37 51.27991 -47.94025 37942 ft 451 kts 258°
2026-05-04 05:38 51.26129 -48.08683 37941 ft 451 kts 258°
2026-05-04 05:38 51.24873 -48.18486 37933 ft 451 kts 258°
2026-05-04 05:39 51.22973 -48.33182 37933 ft 451 kts 258°
2026-05-04 05:40 51.21078 -48.47713 37929 ft 441 kts 257°
2026-05-04 05:40 51.19817 -48.57280 37925 ft 441 kts 257°
2026-05-04 05:41 51.18549 -48.66835 37925 ft 441 kts 257°
2026-05-04 05:41 51.17273 -48.76388 37916 ft 441 kts 257°
2026-05-04 05:42 51.15989 -48.85942 37911 ft 440 kts 257°
2026-05-04 05:42 51.14699 -48.95482 37911 ft 440 kts 257°
2026-05-04 05:43 51.13402 -49.05010 37903 ft 440 kts 257°
2026-05-04 05:45 51.08140 -49.43031 37875 ft 441 kts 256°
2026-05-04 05:47 51.02780 -49.80795 37862 ft 437 kts 256°
2026-05-04 05:47 51.01423 -49.90213 37856 ft 437 kts 255°
2026-05-04 05:48 50.99986 -49.99574 37858 ft 436 kts 250°
2026-05-04 05:48 50.97967 -50.08604 37867 ft 433 kts 248°
2026-05-04 05:49 50.95832 -50.17499 37839 ft 435 kts 247°
2026-05-04 05:49 50.93651 -50.26463 37831 ft 435 kts 247°
2026-05-04 05:51 50.84956 -50.62101 37824 ft 432 kts 246°
2026-05-04 05:52 50.82775 -50.70958 37817 ft 431 kts 246°
2026-05-04 05:52 50.80588 -50.79805 37798 ft 432 kts 246°
2026-05-04 05:54 50.71800 -51.15002 37805 ft 431 kts 245°
2026-05-04 05:55 50.69933 -51.22403 37784 ft 434 kts 245°
2026-05-04 05:55 50.67690 -51.31267 37785 ft 435 kts 245°
2026-05-04 05:56 50.65444 -51.40115 37777 ft 434 kts 244°
2026-05-04 05:56 50.63211 -51.48873 37775 ft 433 kts 244°
2026-05-04 05:57 50.60957 -51.57678 37763 ft 433 kts 244°
2026-05-04 05:57 50.58696 -51.66478 37763 ft 433 kts 244°
2026-05-04 05:58 50.56431 -51.75258 37758 ft 433 kts 244°
2026-05-04 05:58 50.54156 -51.84045 37760 ft 434 kts 244°
2026-05-04 05:59 50.51870 -51.92835 37747 ft 435 kts 244°
2026-05-04 05:59 50.49591 -52.01578 37746 ft 435 kts 244°
2026-05-04 06:00 50.47462 -52.10489 37747 ft 436 kts 246°
2026-05-04 06:00 50.45416 -52.19478 37741 ft 438 kts 246°
2026-05-04 06:01 50.43337 -52.28485 37741 ft 439 kts 245°
2026-05-04 06:03 50.34816 -52.64425 37713 ft 440 kts 245°
2026-05-04 06:05 50.25048 -53.04878 37737 ft 443 kts 244°
2026-05-04 06:06 50.22841 -53.13907 37694 ft 446 kts 244°
2026-05-04 06:06 50.20639 -53.22892 37687 ft 447 kts 244°
2026-05-04 06:07 50.18404 -53.31971 37684 ft 448 kts 244°
2026-05-04 06:07 50.16158 -53.41058 37683 ft 448 kts 244°
2026-05-04 06:08 50.13910 -53.50119 37681 ft 448 kts 244°
2026-05-04 06:08 50.11650 -53.59185 37664 ft 448 kts 244°
2026-05-04 06:09 50.09386 -53.68234 37669 ft 448 kts 243°
2026-05-04 06:11 50.00258 -54.04337 37643 ft 451 kts 243°
2026-05-04 06:13 49.90938 -54.40628 37614 ft 452 kts 242°
2026-05-04 06:14 49.82677 -54.72306 37584 ft 454 kts 242°
2026-05-04 06:15 49.80312 -54.81297 37581 ft 454 kts 242°
2026-05-04 06:15 49.77925 -54.90336 37573 ft 455 kts 242°
2026-05-04 06:16 49.75515 -54.99420 37569 ft 457 kts 242°
2026-05-04 06:16 49.73092 -55.08524 37558 ft 459 kts 242°
2026-05-04 06:17 49.70656 -55.17642 37548 ft 459 kts 241°
2026-05-04 06:17 49.68214 -55.26748 37548 ft 459 kts 241°
2026-05-04 06:18 49.65762 -55.35854 37537 ft 459 kts 241°
2026-05-04 06:20 49.55883 -55.72176 37521 ft 460 kts 241°
2026-05-04 06:21 49.49608 -55.94954 37514 ft 463 kts 240°
2026-05-04 06:22 49.47074 -56.04091 37507 ft 464 kts 240°
2026-05-04 06:25 49.29166 -56.67684 37449 ft 465 kts 240°
2026-05-04 06:26 49.26570 -56.76763 37441 ft 465 kts 240°
2026-05-04 06:26 49.23958 -56.85856 37435 ft 468 kts 240°
2026-05-04 06:27 49.17379 -57.08635 37414 ft 468 kts 240°
2026-05-04 06:28 49.14748 -57.17682 37406 ft 468 kts 240°
2026-05-04 06:28 49.12082 -57.26812 37382 ft 472 kts 240°
2026-05-04 06:29 49.09397 -57.35972 37383 ft 473 kts 240°
2026-05-04 06:29 49.06701 -57.45142 37404 ft 474 kts 239°
2026-05-04 06:30 49.03999 -57.54288 37376 ft 478 kts 239°
2026-05-04 06:30 49.01262 -57.63516 37369 ft 479 kts 239°
2026-05-04 06:31 48.98502 -57.72794 37352 ft 481 kts 239°
2026-05-04 06:31 48.95726 -57.82091 37336 ft 482 kts 239°
2026-05-04 06:33 48.84577 -58.19080 37294 ft 482 kts 239°
2026-05-04 06:34 48.81767 -58.28314 37317 ft 482 kts 239°
2026-05-04 06:34 48.78942 -58.37557 37282 ft 484 kts 239°
2026-05-04 06:36 48.67563 -58.74467 37245 ft 484 kts 239°
2026-05-04 06:37 48.64698 -58.83672 37230 ft 484 kts 239°
2026-05-04 06:37 48.61830 -58.92856 37235 ft 482 kts 239°
2026-05-04 06:38 48.58976 -59.01963 37220 ft 482 kts 239°
2026-05-04 06:40 48.47427 -59.38466 37196 ft 481 kts 240°
2026-05-04 06:40 48.44526 -59.47551 37201 ft 481 kts 239°
2026-05-04 06:41 48.41632 -59.56580 37204 ft 481 kts 239°
2026-05-04 06:41 48.38716 -59.65649 37180 ft 481 kts 239°
2026-05-04 06:42 48.35791 -59.74712 37180 ft 481 kts 240°
2026-05-04 06:44 48.23972 -60.11003 37166 ft 487 kts 239°
2026-05-04 06:44 48.20993 -60.20072 37163 ft 488 kts 239°
2026-05-04 06:45 48.17987 -60.29192 37150 ft 488 kts 239°
2026-05-04 06:45 48.14973 -60.38302 37149 ft 488 kts 239°
2026-05-04 06:46 48.12464 -60.45860 37141 ft 488 kts 239°
2026-05-04 06:46 48.09440 -60.54940 37129 ft 487 kts 239°
2026-05-04 06:48 47.97277 -60.91138 37116 ft 487 kts 239°
2026-05-04 06:50 47.85021 -61.27110 37100 ft 487 kts 239°
2026-05-04 06:51 47.81939 -61.36077 37104 ft 487 kts 239°
2026-05-04 06:51 47.78852 -61.45030 37104 ft 486 kts 239°
2026-05-04 06:52 47.75750 -61.53994 37097 ft 487 kts 239°
2026-05-04 06:52 47.72636 -61.62961 37113 ft 488 kts 239°
2026-05-04 06:53 47.69535 -61.71858 37105 ft 488 kts 239°
2026-05-04 06:53 47.66412 -61.80793 37105 ft 487 kts 239°
2026-05-04 06:54 47.63285 -61.89705 37108 ft 487 kts 239°
2026-05-04 06:54 47.60149 -61.98613 37119 ft 487 kts 239°
2026-05-04 06:55 47.57002 -62.07523 37119 ft 487 kts 239°
2026-05-04 06:55 47.53851 -62.16413 37113 ft 487 kts 239°
2026-05-04 06:57 47.41203 -62.51809 37132 ft 483 kts 239°
2026-05-04 06:58 47.38071 -62.60507 37160 ft 483 kts 239°
2026-05-04 06:58 47.34889 -62.69305 37160 ft 482 kts 239°
2026-05-04 06:59 47.31722 -62.78022 37172 ft 482 kts 239°
2026-05-04 06:59 47.28584 -62.86645 37192 ft 479 kts 239°
2026-05-04 07:01 47.16459 -63.19698 37242 ft 478 kts 239°